Regional Weather Roundup
Issued by NWS Columbia, SC

Home | Current Version | Previous Version | Text Only | Print | Product List | Glossary On
Versions: 1 2 3 4 5 6 7 8 9 10 11 12 13 14 15 16 17 18 19 20 21 22 23 24 25 26 27 28 29 30 31 32 33 34 35 36 37 38 39 40 41 42 43 44 45 46 47 48 49 50
000
ASUS42 KCAE 200410
RWRCAE
REGIONAL WEATHER ROUNDUP
NATIONAL WEATHER SERVICE COLUMBIA SC
1100 PM EST THU JAN 19 2017

NOTE: "FAIR" INDICATES FEW OR NO CLOUDS BELOW 12,000 FEET WITH NO
SIGNIFICANT WEATHER AND/OR OBSTRUCTIONS TO VISIBILITY.

NOT ALL STATIONS ARE QUALITY CONTROLLED BY THE NATIONAL
WEATHER SERVICE. USE DATA WITH CAUTION...ESPECIALLY
DEWPOINT OBSERVATIONS.

SCZ001>056-GAZ040-063>065-077-200500-
...UPSTATE SOUTH CAROLINA...

CITY           SKY/WX    TMP DP  RH WIND       PRES   REMARKS
ANDERSON       CLOUDY    59  43  55 NE7       29.94F
LIBERTY        CLOUDY    57  41  55 E3        29.94F
SPARTANBURG    CLOUDY    54  41  62 CALM      29.95F
CLEMSON        CLOUDY    60  41  49 NE3       29.95F
GREENVILLE     CLOUDY    60  41  49 E3        29.96F
GREENWOOD      CLOUDY    55  44  66 SE3       29.96S
GREER          CLOUDY    56  42  59 NE5       29.94F
ROCK HILL      CLOUDY    49  42  77 CALM      29.98S
CHESTER        CLOUDY    52  41  66 CALM      29.98S
LAURENS        CLOUDY    55  45  67 E3        29.95S


...CENTRAL SOUTH CAROLINA...

CITY           SKY/WX    TMP DP  RH WIND       PRES   REMARKS
COLUMBIA APT   CLOUDY    58  46  64 E3        29.96S
COLUMBIA OWENS CLOUDY    59  47  64 E3        29.98S
MCENTIRE ANGB  MOCLDY    56  50  80 SE5       29.98R
ORANGEBURG     CLOUDY    58  52  80 SE3       29.98R
SUMTER SHAW    MOCLDY    55  47  74 CALM      29.96S
NEWBERRY       CLOUDY    55  45  67 SE5       29.98F
AIKEN          FAIR      57  50  77 SE5       29.99S
BARNWELL       FAIR      61  59  94 SE5       29.97R
MANNING        FAIR      52  41  66 CALM      29.98F
CAMDEN         FAIR      52  45  76 CALM      29.98F
LANCASTER      CLOUDY    54  45  71 CALM      29.99R
WINNSBORO      CLOUDY    57  45  62 SE7       29.97R


...EASTERN AND COASTAL SOUTH CAROLINA...

CITY           SKY/WX    TMP DP  RH WIND       PRES   REMARKS
MYRTLE BEACH   PTCLDY    55  50  82 NE5       30.03R
N MYRTLE BCH   PTCLDY    54  50  86 E3        30.00R
CONWAY         FAIR      46  45  93 CALM      30.01S
MARION         FAIR      46  45  93 SE3       30.01S
HARTSVILLE     FAIR      50  43  76 E3        29.98F
FLORENCE       MOCLDY    52  46  80 SE5       29.99F
DARLINGTON     PTCLDY    50  44  80 SE5       29.99F
CHARLESTON APT MOCLDY    56  52  86 CALM      29.98F
MOUNT PLEASANT LGT RAIN  54  54 100 CALM      29.98F
WALTERBORO     CLOUDY    55  52  88 SE3       29.99R
BEAUFORT       CLOUDY    59  56  89 E3        29.97S


...EASTERN GEORGIA...

CITY           SKY/WX    TMP DP  RH WIND       PRES   REMARKS
AUGUSTA BUSH F CLOUDY    62  52  69 SE6       29.95R
AUGUSTA DANIEL CLOUDY    63  50  62 SE6       29.96R
THOMSON        CLOUDY    65  55  70 SE3       29.98S
WASHINGTON     FAIR      61  54  77 SE3       29.92F
CLAXTON        FAIR     N/A N/A N/A CALM      29.96S
SYLVANIA       CLOUDY   N/A N/A N/A CALM      29.98R
STATESBORO     CLOUDY    61  57  88 CALM      29.97S
SAVANNAH       FOG       58  56  93 SE6       29.98R VSB 1/4


...SOUTHERN NORTH CAROLINA...

CITY           SKY/WX    TMP DP  RH WIND       PRES   REMARKS
CHARLOTTE      CLOUDY    58  39  49 VRB7      29.98S
MONROE         CLOUDY    51  40  65 CALM      29.97S
ROCKINGHAM     PTCLDY    52  43  71 SE3       29.98F
RUTHERFORDTON  CLOUDY    50  43  77 CALM      29.97F
ASHEVILLE      CLOUDY    53  35  50 SE6       29.96F

$$



USA.gov is the U.S. government's official web portal to all federal, state and local government web resources and services.